TimeCDT,TemperatureF,Dew PointF,Humidity,Sea Level PressureIn,VisibilityMPH,Wind Direction,Wind SpeedMPH,Gust SpeedMPH,PrecipitationIn,Events,Conditions,WindDirDegrees,DateUTC
12:15 AM,39.4,39.4,100,30.12,10.0,Calm,Calm,-,N/A,,Scattered Clouds,0,2013-09-14 05:15:00
12:35 AM,38.1,38.1,100,30.12,0.8,Calm,Calm,-,N/A,,Mist,0,2013-09-14 05:35:00
12:55 AM,38.3,38.3,100,30.12,5.0,Calm,Calm,-,N/A,,Clear,0,2013-09-14 05:55:00
1:15 AM,38.3,38.3,100,30.12,10.0,Calm,Calm,-,N/A,,Clear,0,2013-09-14 06:15:00
1:35 AM,37.2,37.2,100,30.12,10.0,Calm,Calm,-,N/A,,Clear,0,2013-09-14 06:35:00
1:55 AM,35.4,35.4,100,30.12,1.5,Calm,Calm,-,N/A,,Mist,0,2013-09-14 06:55:00
2:15 AM,36.0,36.0,100,30.11,0.5,Calm,Calm,-,N/A,Fog,Fog,0,2013-09-14 07:15:00
2:35 AM,35.6,35.6,100,30.11,0.5,Calm,Calm,-,N/A,Fog,Fog,0,2013-09-14 07:35:00
2:55 AM,35.1,35.1,100,30.11,7.0,Calm,Calm,-,N/A,,Clear,0,2013-09-14 07:55:00
3:15 AM,34.7,34.7,100,30.10,0.8,Calm,Calm,-,N/A,,Mostly Cloudy,0,2013-09-14 08:15:00
3:35 AM,35.1,35.1,100,30.09,0.8,Calm,Calm,-,N/A,,Scattered Clouds,0,2013-09-14 08:35:00
3:55 AM,36.3,36.3,100,30.10,0.8,Calm,Calm,-,N/A,,Mist,0,2013-09-14 08:55:00
4:15 AM,39.7,39.7,100,30.09,10.0,Calm,Calm,-,N/A,,Clear,0,2013-09-14 09:15:00
4:35 AM,40.5,40.5,100,30.09,10.0,SSW,3.5,-,N/A,,Clear,210,2013-09-14 09:35:00
4:55 AM,37.6,37.6,100,30.10,4.0,Calm,Calm,-,N/A,,Clear,0,2013-09-14 09:55:00
5:15 AM,40.1,40.1,100,30.10,10.0,Calm,Calm,-,N/A,,Clear,0,2013-09-14 10:15:00
5:35 AM,40.1,40.1,100,30.10,10.0,Calm,Calm,-,N/A,,Clear,0,2013-09-14 10:35:00
5:55 AM,38.8,38.8,100,30.10,10.0,Calm,Calm,-,N/A,,Clear,0,2013-09-14 10:55:00
6:15 AM,37.6,37.6,100,30.10,1.2,Calm,Calm,-,N/A,,Mist,0,2013-09-14 11:15:00
6:35 AM,39.2,39.2,100,30.10,10.0,SSW,3.5,-,N/A,,Clear,200,2013-09-14 11:35:00
6:55 AM,40.6,40.6,100,30.09,10.0,South,3.5,-,N/A,,Clear,190,2013-09-14 11:55:00
7:15 AM,41.4,41.2,99,30.10,10.0,SSW,3.5,-,N/A,,Clear,210,2013-09-14 12:15:00
7:35 AM,42.4,41.9,98,30.09,10.0,Calm,Calm,-,N/A,,Clear,0,2013-09-14 12:35:00
7:55 AM,43.7,42.4,95,30.10,10.0,SW,4.6,-,N/A,,Clear,230,2013-09-14 12:55:00
8:15 AM,45.7,43.5,92,30.10,10.0,SW,4.6,-,N/A,,Clear,220,2013-09-14 13:15:00
8:35 AM,47.8,43.7,86,30.10,10.0,SW,6.9,-,N/A,,Clear,230,2013-09-14 13:35:00
8:55 AM,50.4,43.2,76,30.10,10.0,SW,8.1,-,N/A,,Clear,230,2013-09-14 13:55:00
9:15 AM,52.9,43.7,71,30.10,10.0,SW,8.1,-,N/A,,Clear,230,2013-09-14 14:15:00
9:35 AM,54.0,43.3,67,30.10,10.0,SW,9.2,-,N/A,,Clear,230,2013-09-14 14:35:00
9:55 AM,54.5,43.0,65,30.09,10.0,SW,11.5,-,N/A,,Clear,230,2013-09-14 14:55:00
10:15 AM,56.8,43.7,61,30.07,10.0,SW,8.1,-,N/A,,Clear,220,2013-09-14 15:15:00
10:35 AM,59.2,43.5,56,30.07,10.0,WSW,10.4,17.3,N/A,,Clear,240,2013-09-14 15:35:00
10:55 AM,60.8,43.0,52,30.06,10.0,SW,17.3,20.7,N/A,,Clear,230,2013-09-14 15:55:00
11:15 AM,59.5,42.8,54,30.06,10.0,WSW,12.7,18.4,N/A,,Clear,250,2013-09-14 16:15:00
11:35 AM,61.5,44.1,53,30.05,10.0,WSW,16.1,-,N/A,,Clear,250,2013-09-14 16:35:00
11:55 AM,61.3,44.4,54,30.04,10.0,WSW,11.5,-,N/A,,Clear,250,2013-09-14 16:55:00
12:15 PM,62.2,44.2,52,30.04,10.0,WSW,12.7,18.4,N/A,,Clear,240,2013-09-14 17:15:00
12:35 PM,64.0,45.3,51,30.02,10.0,SW,10.4,-,N/A,,Clear,220,2013-09-14 17:35:00
12:55 PM,65.7,44.1,46,30.01,10.0,SW,11.5,21.9,N/A,,Clear,230,2013-09-14 17:55:00
1:15 PM,65.1,43.2,45,30.00,10.0,WSW,15.0,23.0,N/A,,Clear,240,2013-09-14 18:15:00
1:35 PM,65.5,44.6,47,30.00,10.0,SW,10.4,16.1,N/A,,Clear,220,2013-09-14 18:35:00
1:55 PM,66.4,43.9,44,29.99,10.0,WSW,11.5,20.7,N/A,,Clear,240,2013-09-14 18:55:00
2:15 PM,65.3,44.1,46,29.98,10.0,SW,8.1,-,N/A,,Clear,230,2013-09-14 19:15:00
2:35 PM,65.5,45.5,48,29.97,10.0,WSW,9.2,-,N/A,,Clear,240,2013-09-14 19:35:00
2:55 PM,67.3,45.0,45,29.97,10.0,SW,13.8,19.6,N/A,,Clear,230,2013-09-14 19:55:00
3:15 PM,67.3,44.8,44,29.97,10.0,SW,10.4,19.6,N/A,,Clear,230,2013-09-14 20:15:00
3:35 PM,65.3,45.7,49,29.97,10.0,SW,8.1,-,N/A,,Clear,230,2013-09-14 20:35:00
3:55 PM,67.1,45.3,45,29.97,10.0,SW,8.1,-,N/A,,Clear,230,2013-09-14 20:55:00
4:15 PM,64.6,45.5,50,29.96,10.0,SW,4.6,-,N/A,,Clear,220,2013-09-14 21:15:00
4:35 PM,63.7,46.0,53,29.97,10.0,SW,6.9,-,N/A,,Clear,230,2013-09-14 21:35:00
4:55 PM,63.0,46.8,55,29.97,10.0,Calm,Calm,-,N/A,,Clear,0,2013-09-14 21:55:00
5:15 PM,62.8,47.5,57,29.97,10.0,SW,3.5,-,N/A,,Clear,220,2013-09-14 22:15:00
5:35 PM,62.8,47.5,57,29.97,10.0,SW,3.5,-,N/A,,Clear,220,2013-09-14 22:35:00
5:55 PM,62.6,47.5,58,29.98,10.0,SW,4.6,-,N/A,,Clear,230,2013-09-14 22:55:00
6:15 PM,61.2,48.2,62,29.98,10.0,SW,3.5,-,N/A,,Clear,230,2013-09-14 23:15:00
6:35 PM,60.6,48.2,64,29.98,10.0,Calm,Calm,-,N/A,,Clear,0,2013-09-14 23:35:00
6:55 PM,60.1,48.2,65,29.97,10.0,Calm,Calm,-,N/A,,Clear,0,2013-09-14 23:55:00
7:15 PM,59.4,48.0,66,29.97,10.0,Calm,Calm,-,N/A,,Scattered Clouds,0,2013-09-15 00:15:00
7:35 PM,58.6,48.2,68,29.96,10.0,South,3.5,-,N/A,,Scattered Clouds,190,2013-09-15 00:35:00
7:55 PM,58.6,48.2,68,29.97,10.0,SSW,3.5,-,N/A,,Scattered Clouds,210,2013-09-15 00:55:00
8:15 PM,57.6,48.6,72,29.97,10.0,Calm,Calm,-,N/A,,Mostly Cloudy,0,2013-09-15 01:15:00
8:35 PM,57.0,48.6,73,29.97,10.0,Calm,Calm,-,N/A,,Mostly Cloudy,0,2013-09-15 01:35:00
8:55 PM,57.2,48.6,73,29.96,10.0,Calm,Calm,-,N/A,,Overcast,0,2013-09-15 01:55:00
9:15 PM,56.8,48.6,74,29.96,10.0,South,3.5,-,N/A,,Overcast,190,2013-09-15 02:15:00
9:35 PM,56.8,48.7,74,29.96,10.0,Calm,Calm,-,N/A,,Overcast,0,2013-09-15 02:35:00
9:55 PM,57.4,48.7,73,29.98,10.0,Calm,Calm,-,N/A,,Overcast,0,2013-09-15 02:55:00
10:15 PM,55.6,49.1,79,29.99,10.0,Calm,Calm,-,N/A,,Overcast,0,2013-09-15 03:15:00
10:35 PM,55.9,49.6,79,30.00,10.0,SW,5.8,-,N/A,Rain,Light Rain,230,2013-09-15 03:35:00
10:55 PM,56.3,50.2,80,30.00,10.0,West,9.2,17.3,N/A,Rain,Rain,280,2013-09-15 03:55:00
11:15 PM,54.9,53.6,96,30.00,10.0,WNW,8.1,-,0.01,Rain,Light Rain,300,2013-09-15 04:15:00
11:35 PM,54.5,53.8,97,29.99,7.0,NW,5.8,-,0.03,Rain,Rain,310,2013-09-15 04:35:00
11:55 PM,54.0,53.6,99,30.00,10.0,SW,3.5,-,0.05,Rain,Light Rain,220,2013-09-15 04:55:00